Terminal Aerodrome Forecast
Issued by NWS Dodge City, KS

Home | Current Version | Previous Version | Graphics & Text | Print | Product List | Glossary Off
Versions: 1 2 3 4 5 6 7 8 9 10 11 12 13 14 15 16 17 18 19 20 21 22 23 24 25 26 27 28 29 30 31 32 33 34 35 36 37 38 39 40 41 42 43 44 45 46 47 48 49 50

000
FTUS43 KDDC 230132 AAC
TAFDDC
TAF AMD
KDDC 230132Z 2302/2324 15014KT 3/4SM -DZ BR OVC002
      TEMPO 2304/2308 2SM -DZ BR
     FM231100 13012KT 6SM -TSRA BR OVC003CB
     FM231500 15021G28KT 4SM BR OVC007=

USA.gov is the U.S. government's official web portal to all federal, state and local government web resources and services.